User: anonymous   Login
Location: Caltech
(34.1382°N, 118.1253°W)
Time: 17:22:35
(UTC-08:00)
Language:

Cosmos 2219 - Orbit

View from above orbital plane
View from above orbital plane
View from above satellite
View from above satellite

Ground track
Ground track

The orbit data is extracted from the following two-line orbital elements,

1 22219U 92076A   16039.49773779  .00000129  00000-0  92989-4 0  9995
2 22219  71.0590 151.0280 0016339  62.5044 297.7737 14.13573245198308
Epoch (UTC): 08 February 2016 11:56:44
Eccentricity: 0.0016339
inclination: 71.0590°
perigee height: 835 km
apogee height: 859 km
right ascension of ascending node: 151.0280°
argument of perigee: 62.5044°
revolutions per day: 14.13573245
mean anomaly at epoch: 297.7737°
orbit number at epoch: 19830

The dashed part of the orbit path shows where the satellite is in the earth's shadow,  

DLR